Indianapolis, IN

6:41 AM EDT on March 23, 2017 (GMT -0400)
Indianapolis International

Weather History for KIND - May, 2013

Change the Weather History Date:

Tuesday, May 28, 2013

  Actual Average Record
Temperature  
Mean Temperature 72 °F 66 °F  
Max Temperature 82 °F 76 °F 96 °F (1911)
Min Temperature 62 °F 57 °F 39 °F (1907)
Degree Days  
Heating Degree Days 0 2  
Month to date heating degree days 103 135  
Since 1 July heating degree days 5396 5357  
Cooling Degree Days 7 4  
Month to date cooling degree days 88 57  
Year to date cooling degree days 97 72  
Growing Degree Days 22 (Base 50)    
Moisture  
Dew Point 63 °F    
Average Humidity 76    
Maximum Humidity 93    
Minimum Humidity 58    
Precipitation  
Precipitation 0.00 in 0.16 in 1.50 in (1912)
Month to date precipitation 3.00 4.58  
Year to date precipitation 21.33 16.93  
Snow  
Snow 0.00 in 0.00 in 0.00 in ()
Month to date snowfall 0.0 0.0  
Since 1 July snowfall 34.5 25.9  
Snow Depth 0.00 in    
Sea Level Pressure  
Sea Level Pressure 29.91 in    
Wind  
Wind Speed 13 mph (SSW)    
Max Wind Speed 30 mph    
Max Gust Speed 37 mph    
Visibility 10 miles    
Events      
T = Trace of Precipitation, MM = Missing Value Source: NWS Daily Summary

Daily Weather History Graph

Daily Weather History Graph

Search for Another Location

Airport or City:

Trip Planner

Search our weather history database for the weather conditions in past years. The results will help you decide how hot, cold, wet, or windy it might be!

Date:

Astronomy

May. 28, 2013 Rise Set
Actual Time 6:21 AM EDT 9:04 PM EDT
Civil Twilight 5:49 AM EDT 9:36 PM EDT
Nautical Twilight 5:09 AM EDT 10:15 PM EDT
Astronomical Twilight 4:24 AM EDT 11:00 PM EDT
Moon No Moon Rise 10:08 AM EDT (5/28)
Length of Visible Light 15h 46m
Length of Day
14h 43m
Waning Gibbous, 83% of the Moon is Illuminated
May 28
Waning Gibbous
May 31
Last Quarter
Jun 8
New
Jun 16
First Quarter
Jun 23
Full

Hourly Weather History & Observations

Time (EDT) Temp. Heat Index Dew Point Humidity Pressure Visibility Wind Dir Wind Speed Gust Speed Precip Events Conditions
12:54 AM 64.9 °F - 63.0 °F 93% 29.94 in 10.0 mi SW 8.1 mph - N/A   Overcast
1:54 AM 63.0 °F - 61.0 °F 93% 29.93 in 10.0 mi South 6.9 mph - N/A   Mostly Cloudy
2:54 AM 63.0 °F - 61.0 °F 93% 29.93 in 10.0 mi SSW 5.8 mph - N/A   Mostly Cloudy
3:54 AM 63.0 °F - 60.1 °F 90% 29.91 in 10.0 mi South 8.1 mph - N/A   Mostly Cloudy
4:54 AM 63.0 °F - 60.1 °F 90% 29.91 in 10.0 mi South 8.1 mph - N/A   Mostly Cloudy
5:54 AM 64.0 °F - 60.1 °F 87% 29.91 in 10.0 mi SSW 8.1 mph - N/A   Mostly Cloudy
6:54 AM 64.9 °F - 61.0 °F 87% 29.93 in 10.0 mi South 6.9 mph - N/A   Mostly Cloudy
7:54 AM 66.9 °F - 62.1 °F 84% 29.95 in 10.0 mi SSW 11.5 mph - N/A   Mostly Cloudy
8:54 AM 68.0 °F - 63.0 °F 84% 29.96 in 10.0 mi SSW 10.4 mph - N/A   Overcast
9:54 AM 70.0 °F - 64.0 °F 81% 29.95 in 10.0 mi South 15.0 mph 19.6 mph N/A   Overcast
10:54 AM 73.0 °F - 64.9 °F 76% 29.95 in 10.0 mi SSW 13.8 mph - N/A   Overcast
11:54 AM 75.9 °F - 66.0 °F 71% 29.94 in 10.0 mi SSW 21.9 mph 26.5 mph N/A   Overcast
12:54 PM 79.0 °F - 66.0 °F 64% 29.93 in 10.0 mi SSW 19.6 mph 29.9 mph N/A   Overcast
1:54 PM 80.1 °F 81.9 °F 64.9 °F 60% 29.90 in 10.0 mi South 21.9 mph 31.1 mph N/A   Overcast
2:54 PM 79.0 °F - 64.9 °F 62% 29.90 in 10.0 mi SW 19.6 mph 27.6 mph N/A   Overcast
3:54 PM 81.0 °F 82.7 °F 64.9 °F 58% 29.88 in 10.0 mi SSW 23.0 mph 29.9 mph N/A   Overcast
4:54 PM 80.1 °F 81.7 °F 64.0 °F 58% 29.87 in 10.0 mi SSW 20.7 mph 25.3 mph N/A   Overcast
5:54 PM 80.1 °F 81.7 °F 64.0 °F 58% 29.88 in 10.0 mi SSW 13.8 mph 25.3 mph N/A   Overcast
6:54 PM 80.1 °F 81.7 °F 64.0 °F 58% 29.88 in 10.0 mi SSW 12.7 mph - N/A   Overcast
7:54 PM 80.1 °F 81.7 °F 64.0 °F 58% 29.89 in 10.0 mi SSW 12.7 mph - N/A   Mostly Cloudy
8:54 PM 77.0 °F - 64.0 °F 64% 29.88 in 10.0 mi SSW 12.7 mph - N/A   Mostly Cloudy
9:54 PM 75.9 °F - 64.0 °F 67% 29.88 in 10.0 mi South 10.4 mph - N/A   Mostly Cloudy
10:54 PM 73.9 °F - 63.0 °F 68% 29.91 in 10.0 mi SSW 11.5 mph - N/A   Scattered Clouds
11:54 PM 75.0 °F - 62.1 °F 64% 29.93 in 10.0 mi South 9.2 mph - N/A   Overcast